Location: Chattahoochee River National Recreation Area
(34.0022°N, 84.2416°W)
Time: 09:38:49
(UTC-04:00)

Daily predictions for brighter satellites

Satellite Brightness Start Highest point End
(mag) Time Altitude Azimuth Time Altitude Azimuth Time Altitude Azimuth
ATLAS 2AS CENTAUR R/B 3.5 21:11:21 10° NW 21:19:04 61° WSW 21:26:06 10° SSE
ALOS 4.4 21:15:24 10° SSW 21:19:22 28° W 21:23:22 10° NW
Cosmos 676 Rocket 4.1 21:14:23 10° S 21:19:32 60° ESE 21:24:40 10° NNE
Spot 2 Rocket 3.6 21:15:59 10° SSE 21:21:01 89° WSW 21:26:06 10° NNW
H-2A R/B 4.3 21:18:37 10° SSW 21:22:06 36° W 21:25:38 10° NNW
CZ-4B DEB 4.4 21:21:02 10° ESE 21:23:07 18° ENE 21:25:12 10° NNE
Cosmos 1934 Rocket 4.1 21:17:40 10° N 21:23:46 62° E 21:29:45 10° SSE
Cosmos 1184 Rocket 4.2 21:23:06 10° SE 21:25:44 22° E 21:28:23 10° NE
SL-19 R/B 4.4 21:23:41 10° SSE 21:29:25 64° ENE 21:34:56 10° N
SL-24 DEB 4.3 21:26:52 10° S 21:31:36 82° E 21:36:23 10° N
DELTA 2 R/B (1) 3.9 21:26:32 10° WNW 21:32:04 61° SSW 21:37:26 11° SE
Cosmos 1605 Rocket 4.3 21:26:04 10° N 21:32:06 48° E 21:38:10 10° SSE
Cosmos 1939 Rocket 3.3 21:29:13 10° SSE 21:33:00 46° ENE 21:36:52 10° N
Cosmos 2082 3.6 21:27:36 10° SSW 21:33:11 77° ESE 21:38:48 10° NNE
Cosmos 2297 Rocket 2.2 21:35:11 10° SSW 21:40:49 84° ESE 21:46:30 10° NNE
Aureole 2 Rocket 2.9 21:36:59 10° N 21:41:01 56° ENE 21:44:28 12° SSE
Cosmos 2084 4.2 21:40:29 10° S 21:43:56 26° ESE 21:47:15 10° ENE
Envisat 3.0 21:40:21 10° SSE 21:45:25 90° W 21:50:32 10° NNW
Cosmos 1727 Rocket 4.1 21:39:20 10° S 21:45:31 61° E 21:51:45 10° NNE
OAO 3 Rocket 3.8 21:41:35 10° W 21:45:58 40° SSW 21:49:35 14° SE
Cosmos 1842 Rocket 3.7 21:41:39 10° N 21:45:59 55° E 21:50:08 11° SSE
Meteor 1-29 2.9 21:43:02 10° NNE 21:46:26 62° E 21:49:50 10° S
Helios 1A 3.0 21:42:38 10° SSE 21:46:45 69° ENE 21:50:53 10° N
Cosmos 1241 Rocket 4.5 21:40:54 10° NNW 21:47:18 77° ENE 21:53:00 13° SSE
Cosmos 1340 Rocket 3.1 21:44:11 10° SSE 21:47:59 45° E 21:51:51 10° NNE
USA 32 4.2 21:47:41 10° SSE 21:52:47 56° E 21:57:55 10° NNE
Helios 1B rocket 2.6 21:49:32 10° N 21:53:41 80° WNW 21:57:48 10° SSW
Cosmos 1140 Rocket 3.5 21:54:26 10° SSW 21:59:37 85° WNW 22:04:48 10° NNE
Cosmos 1980 3.7 21:56:50 10° NNW 22:02:34 85° WSW 22:07:30 14° SSE
Cosmos 1867 3.8 21:59:52 10° S 22:05:00 45° ESE 22:10:10 10° NE
ATLAS 5 CENTAUR R/B 1.6 22:00:42 10° SSW 22:05:13 69° ESE 22:10:04 10° NE
Lacrosse 4 Rocket 3.7 22:03:37 10° WSW 22:07:16 28° WNW 22:11:02 10° N
Atlas Centaur 2 1.3 22:04:39 10° WSW 22:08:07 47° S 22:09:45 26° ESE
Cosmos 2237 Rocket 2.3 22:07:36 10° NNW 22:13:13 74° WSW 22:17:44 16° SSE
Tiangong 1 3.2 22:11:33 10° WNW 22:13:56 24° NNW 22:16:18 10° NE
YAOGAN 6 2.8 22:14:19 18° S 22:16:55 69° W 22:20:33 10° NNW
Cosmos 1076 Rocket 3.8 22:16:28 23° SSE 22:18:56 50° E 22:23:10 10° NNE
Cosmos 1726 4.3 22:18:08 10° NE 22:19:32 12° ENE 22:19:32 12° ENE
Milstar 3 Cent rocket 3.7 22:12:37 10° W 22:19:42 58° S 22:31:25 17° ESE
Okean 3 Rocket 3.5 22:17:03 13° S 22:21:00 78° E 22:25:29 10° N
Cosmos 2227 Rocket 4.1 22:19:12 10° SW 22:24:11 31° WNW 22:29:12 10° N
SL-8 R/B 3.7 22:21:06 10° NW 22:25:52 74° SW 22:28:07 31° SE
Cosmos 1850 Rocket 4.0 22:21:57 10° SSW 22:27:06 84° WNW 22:32:19 10° NNE
Cosmos 1356 Rocket 3.5 22:25:41 27° SSE 22:27:48 59° E 22:32:00 10° NNE
Cosmos 1908 3.5 22:27:15 10° N 22:31:02 49° E 22:31:56 40° SE
Cosmos 1674 2.5 22:29:46 30° S 22:31:30 75° E 22:35:15 10° N
Cosmos 2221 2.4 22:28:57 10° N 22:33:22 80° E 22:35:20 32° SSE
H-2A R/B 2.9 22:31:57 26° ESE 22:33:56 35° ENE 22:38:47 10° N
OAO 1 Rocket 4.3 22:30:31 10° WSW 22:35:52 76° SSE 22:40:14 16° E
SL-16 R/B 2.2 22:30:18 10° NNW 22:35:57 69° ENE 22:38:37 32° SE
YAOGAN 11 4.4 22:34:30 35° SE 22:36:03 52° ENE 22:40:27 10° N
KORONAS-FOTON 3.8 22:37:54 47° SE 22:38:39 57° E 22:42:23 10° NNE
SPOT 5 3.0 22:39:46 36° SE 22:41:29 59° ENE 22:46:21 10° N
ARGOS 3.2 22:39:06 32° SSE 22:41:39 68° ENE 22:47:02 10° N
USA 245 3.0 22:42:55 53° ENE 22:42:55 53° ENE 22:46:25 10° N
Cosmos 1766 Rocket 3.5 22:41:51 41° SSE 22:43:09 63° E 22:47:25 10° NNE
USA 234 3.7 22:37:51 10° NE 22:44:18 64° NW 22:50:44 10° WSW
ERS-1 Rocket 3.2 22:41:41 24° S 22:44:42 65° WSW 22:49:42 10° NNW
Cosmos 1818 3.8 22:39:53 10° NNW 22:45:14 56° ENE 22:47:13 36° ESE
MetOp-A 4.1 22:43:18 28° S 22:46:12 83° WSW 22:51:34 10° NNW
Lacrosse 5 4.0 22:44:50 10° N 22:48:15 18° NE 22:51:05 12° ENE
Cosmos 2228 Rocket 4.4 22:47:58 10° NNE 22:51:49 26° ENE 22:51:56 26° E
Cosmos 2333 Rocket 4.3 22:50:23 10° NW 22:54:20 20° W 22:58:17 10° SW
Sakura Rocket 4.0 22:48:35 10° WSW 22:55:45 49° S 22:57:10 41° SE
MINOTAUR IV R/B 4.5 22:56:35 49° S 22:57:42 71° ESE 23:02:13 10° NNE
Cosmos 2061 Rocket 4.0 22:51:33 10° N 22:57:57 85° E 23:00:59 34° S
Cosmos 1743 Rocket 4.1 23:00:07 39° E 23:00:07 39° E 23:03:50 10° NNE
Cosmos 2100 Rocket 4.1 22:53:48 10° N 23:00:07 77° W 23:03:34 29° S
H-2A R/B 3.7 23:00:30 21° ENE 23:00:30 21° ENE 23:03:40 10° NNE
RESURS DK-1 4.0 22:57:09 10° N 23:00:30 23° ENE 23:00:38 23° ENE
Cosmos 1459 Rocket 4.0 22:56:38 10° N 23:02:56 78° W 23:06:01 32° S
Cosmos 2227 4.2 23:01:00 20° SSW 23:05:08 89° WNW 23:10:53 10° NNE
DMSP B5D2-2 4.0 23:01:19 10° NNE 23:06:30 62° E 23:07:30 52° SSE
Cosmos 2123 Rocket 3.9 23:05:26 40° SSE 23:07:46 72° E 23:13:55 10° N
Delta 2 Rocket 4.5 23:02:38 10° SW 23:07:15 42° S 23:07:15 42° S
EO 1 Delta rocket 3.8 23:08:12 56° SSE 23:09:11 77° E 23:13:47 10° N
NOSS 3-4 (A) 4.5 23:06:16 10° NW 23:13:08 48° WSW 23:16:43 29° S
NOSS 3-4 (C) 4.4 23:06:21 10° NW 23:13:14 49° WSW 23:16:48 29° S
Cosmos 2173 Rocket 4.3 23:08:48 10° NNW 23:14:52 63° W 23:17:53 31° SSW
Landsat 7 3.8 23:16:33 62° ESE 23:16:57 65° ENE 23:21:40 10° N
SL-14 R/B 3.4 23:19:16 68° NNE 23:19:16 68° NNE 23:22:47 10° N
Cosmos 1328 3.9 23:22:18 71° N 23:22:18 71° N 23:25:56 10° N
IGS 5A 4.1 23:26:45 46° NE 23:26:45 46° NE 23:30:11 10° N
SL-19 R/B 4.2 23:21:49 10° NNE 23:27:07 60° ESE 23:27:22 60° ESE
SPOT 1/Viking Rocket 3.8 23:27:38 51° SSW 23:28:39 62° WSW 23:33:46 10° NNW
Cosmos 1242 Rocket 4.3 23:26:47 10° NNW 23:29:58 27° W 23:30:10 27° W
Cosmos 1802 Rocket 4.5 23:24:45 10° NNW 23:30:41 53° W 23:33:11 33° SSW
Terra 1.9 23:32:00 64° ENE 23:32:00 64° ENE 23:36:37 10° N
Cosmos 1486 Rocket 3.8 23:33:16 76° SE 23:33:25 77° ESE 23:38:42 10° NNE
Cosmos 1814 Rocket 4.1 23:29:30 10° N 23:34:47 58° ENE 23:34:58 58° E
Cosmos 1725 Rocket 3.9 23:29:15 10° N 23:35:31 88° W 23:36:52 58° S
Cosmos 2263 Rocket 2.3 23:38:53 55° E 23:38:53 55° E 23:43:48 10° NNE
Cosmos 1300 3.6 23:36:50 10° NNW 23:39:44 48° NNW 23:39:44 48° NNW
Cosmos 1626 4.1 23:46:13 24° NNE 23:46:13 24° NNE 23:47:52 10° NNE
deb Chang Zheng 4 4.1 23:43:41 10° NNE 23:47:09 56° NNE 23:47:09 56° NNE
Tiangong 1 4.3 23:48:37 10° NW 23:49:18 12° NNW 23:49:18 12° NNW
Cosmos 841 Rocket 4.0 23:45:12 10° N 23:49:58 47° ENE 23:49:58 47° ENE
Spot 4 4.4 23:52:27 48° NE 23:52:27 48° NE 23:56:35 10° N
Cosmos 332 Rocket 3.9 23:48:11 10° NNW 23:52:42 71° WNW 23:52:42 71° WNW
Cosmos 1763 Rocket 3.6 23:49:34 10° NNW 23:54:12 65° NE 23:54:12 65° NE
Cosmos 1726 4.0 23:51:46 10° NNW 23:54:10 26° WNW 23:54:10 26° WNW
